Location: Saint-Palais-sur-Mer
(45.6429°N, 1.0859°W)
Time: 09:12:52
(UTC+01:00)

Vanguard 2 - All Passes

Search period start: 15 February 2026 00:00
Search period end: 25 February 2026 00:00
Orbit: 553 x 2897 km, 32.9° (Epoch: 13 February)

Date Brightness Start Highest point End Pass type
(mag) Time Alt. Az. Time Alt. Az. Time Alt. Az.
15 Feb - 09:06:53 10° SSW 09:08:58 14° S 09:11:02 10° SE daylight
15 Feb - 11:13:53 10° SW 11:15:54 13° S 11:18:07 10° SSE daylight
16 Feb - 09:18:30 10° SSW 09:20:44 14° S 09:22:56 10° SE daylight
16 Feb - 11:26:35 10° SSW 11:27:40 11° S 11:28:48 10° S daylight
17 Feb - 07:23:37 10° SSW 07:25:32 12° S 07:27:17 10° SSE visible
17 Feb - 09:30:18 10° SW 09:32:29 14° S 09:34:39 10° SSE daylight
18 Feb - 07:34:42 10° SSW 07:37:18 14° S 07:39:38 10° SE visible
18 Feb - 09:42:17 10° SW 09:44:14 13° S 09:46:09 10° SSE daylight
19 Feb - 05:39:59 10° S 05:41:51 11° SSE 05:43:31 10° SSE visible
19 Feb - 07:46:06 10° SW 07:49:05 16° S 07:51:41 10° SE daylight
19 Feb - 09:54:35 10° SSW 09:55:58 11° SSW 09:57:20 10° S daylight
20 Feb - 05:50:16 10° SSW 05:53:40 15° S 05:56:30 10° SE visible
20 Feb - 07:57:42 10° SW 08:00:51 17° S 08:03:35 10° SE daylight
21 Feb - 06:01:13 10° SSW 06:05:29 18° S 06:08:51 10° SE visible
21 Feb - 08:09:27 10° SW 08:12:36 17° S 08:15:19 10° SSE daylight
22 Feb - 04:05:43 10° S 04:09:35 14° SSE 04:12:49 10° SE visible
22 Feb - 06:12:28 10° SW 06:17:17 20° S 06:20:58 10° SE visible
22 Feb - 08:21:21 10° SW 08:24:20 16° SSW 08:26:56 10° SSE daylight
23 Feb - 04:15:56 10° SSW 04:21:26 17° SSE 04:25:39 10° SE visible
23 Feb - 06:23:55 10° SW 06:29:05 22° S 06:32:56 10° SE visible
23 Feb - 08:33:25 10° SW 08:36:01 14° SSW 08:38:20 10° SSE daylight
24 Feb - 02:22:37 10° SSE 02:24:58 11° SSE 02:27:06 10° SE night (unlit)
24 Feb - 04:26:42 10° SSW 04:33:15 21° S 04:38:02 10° ESE visible
24 Feb - 06:35:32 10° SW 06:40:51 23° S 06:44:48 10° SE visible
24 Feb - 08:45:47 10° SW 08:47:40 12° SSW 08:49:24 10° S daylight
